This is the latest recevied weather packets stored in our database for station/object WX2NJ. If no packets are shown the sender has not sent any weather packets the latest 10 day(s).
| Time | Temp. | Humidity | Pressure | Rain* | Wind** | Luminosity | Snow |
|---|---|---|---|---|---|---|---|
| 1788263700 | 75° F | 92% | 764.7 mmHg | 0 in | - | 60 W/m² | - |
| 1788263398 | 75° F | 92% | 764.7 mmHg | 0 in | - | 38 W/m² | - |
| 1788263093 | 74° F | 92% | 764.8 mmHg | 0 in | - | 28 W/m² | - |
| 1788262791 | 75° F | 92% | 764.8 mmHg | 0 in | - | 32 W/m² | - |
| 1788262490 | 75° F | 92% | 764.6 mmHg | 0 in | - | 38 W/m² | - |
| 1788262186 | 75° F | 92% | 764.8 mmHg | 0 in | - | 82 W/m² | - |
| 1788261881 | 75° F | 92% | 764.6 mmHg | 0 in | - | 89 W/m² | - |
| 1788261576 | 74° F | 92% | 764.7 mmHg | 0 in | - | 64 W/m² | - |
| 1788261274 | 74° F | 92% | 764.6 mmHg | 0 in | - | 32 W/m² | - |
| 1788260973 | 73° F | 92% | 764.8 mmHg | 0 in | - | 26 W/m² | - |
| 1788260669 | 73° F | 92% | 764.8 mmHg | 0 in | - | 17 W/m² | - |
| 1788260365 | 73° F | 92% | 764.8 mmHg | 0 in | - | 11 W/m² | - |
| 1788260060 | 73° F | 92% | 764.9 mmHg | 0 in | - | 9 W/m² | - |
| 1788259756 | 73° F | 92% | 764.7 mmHg | 0 in | - | 5 W/m² | - |
| 1788259451 | 73° F | 92% | 764.7 mmHg | 0 in | - | 2 W/m² | - |
| 1788259146 | 73° F | 92% | 764.7 mmHg | 0 in | - | 0 W/m² | - |
| 1788258846 | 73° F | 92% | 764.5 mmHg | 0 in | - | 0 W/m² | - |
| 1788258541 | 73° F | 92% | 764.7 mmHg | 0 in | - | 0 W/m² | - |
| 1788258235 | 73° F | 92% | 764.5 mmHg | 0 in | - | 0 W/m² | - |
| 1788257931 | 73° F | 92% | 764.5 mmHg | 0 in | - | 0 W/m² | - |
| 1788257631 | 73° F | 92% | 764.5 mmHg | 0 in | - | 0 W/m² | - |
| 1788257330 | 73° F | 92% | 764.5 mmHg | 0 in | - | 0 W/m² | - |
| 1788257025 | 73° F | 92% | 764.4 mmHg | 0 in | - | 0 W/m² | - |
| 1788256725 | 73° F | 92% | 764.2 mmHg | 0 in | - | 0 W/m² | - |
| 1788256422 | 73° F | 92% | 764.4 mmHg | 0 in | - | 0 W/m² | - |
* Rain latest hour (hover to see other rain measurements)
** Current wind speed in m/s (hover to see current wind gust speed)